Location: Asheville, NC
(35.6000°N, 82.5500°W)
Time: 11:44:14
(UTC-04:00)

Vanguard 2 - Pass Details

Date: 09 March 2018
Orbit: 553 x 2939 km, 32.9° (Epoch: 20 June)

Event Time Altitude Azimuth Distance (km) Brightness Sun altitude
Rises 09:45:33 0° 205° (SSW) 5,524 12.0 32.8°
Reaches altitude 10° 09:49:26 10° 195° (SSW) 4,836 11.9 33.4°
Maximum altitude 10:01:42 32° 139° (SE) 3,988 13.7 35.4°
Drops below altitude 10° 10:16:09 10° 85° (E) 5,757 12.6 37.6°
Sets 10:21:14 0° 77° (ENE) 6,691 12.7 38.4°
